ALSAT 1B

Last updated on Sun Dec 14 2025 00:02:32 GMT+0000 (Coordinated Universal Time)

1 41785U 16059C 25347.28149883 .00001035 00000+0 17203-3 0 9994 2 41785 97.7818 359.0481 0010730 101.4511 258.7903 14.72077378493221
UTC large
Height (km)
Speed (km/s)
/
Latitude / Longitude
Inclination (degrees)
Orbital Period (minutes)
Azimuth
Elevation
Range (km)
Doppler Factor

Next 0 passes for location: London (51.5072 / 0.1276)

Sorry there are no passes over London.